TISAT 1

Last updated on Mon Sep 15 2025 00:03:48 GMT+0000 (Coordinated Universal Time)

1 36799U 10035E 25257.05160498 .00011842 00000+0 56979-3 0 9991 2 36799 98.0519 177.2314 0005364 111.0886 249.0921 15.18944125825604
UTC large
Height (km)
Speed (km/s)
/
Latitude / Longitude
Inclination (degrees)
Orbital Period (minutes)
Azimuth
Elevation
Range (km)
Doppler Factor

Next 0 passes for location: London (51.5072 / 0.1276)

Sorry there are no passes over London.